Preview of NWS' New Version of Forecast
This preview is not operational and should not be used for support decisions.

Regional Weather Roundup (RWR)

Issued by National Weather Service (NWS)

                            
287 
ASUS43 KFSD 200510
RWRSD 

WEATHER ROUNDUP FOR SOUTH DAKOTA
NATIONAL WEATHER SERVICE SIOUX FALLS SD
1200 AM CDT WED JUN 20 2018

NOTE: "FAIR" INDICATES FEW OR NO CLOUDS BELOW 12,000 FEET WITH NO
SIGNIFICANT WEATHER AND/OR OBSTRUCTIONS TO VISIBILITY.


SDZ001>005-009-010-012>017-200600-
NORTHWEST AND NORTH CENTRAL SOUTH DAKOTA
  
CITY           SKY/WX    TMP DP  RH WIND       PRES   REMARKS
BUFFALO          N/A     61  57  87 N10       30.03                   
MOBRIDGE       MOCLDY    70  58  65 E10       30.01R                  
$$
 
SDZ012>016-024>037-041>051-057-063-072>074-200600-
SOUTHWEST AND SOUTH CENTRAL SOUTH DAKOTA
  
CITY           SKY/WX    TMP DP  RH WIND       PRES   REMARKS
RAPID CTY ARPT CLOUDY    59  57  93 N6        30.07F                  
PIERRE         CLOUDY    63  60  90 N6        29.99F                  
CUSTER         CLOUDY    50  47  89 CALM      30.15S                  
ELLSWORTH AFB  DRIZZLE   59  59 100 CALM      30.07                   
PHILIP         LGT RAIN  63  63 100 N5        30.00F                  
PINE RIDGE     CLOUDY    56  55  97 CALM      30.08F                  
SPEARFISH      CLOUDY    55  55 100 CALM      30.12R FOG              
WINNER         FAIR      68  62  81 NE10      29.95F                  
$$
 
SDZ004>011-016>023-039-040-200600-
NORTHEAST SOUTH DAKOTA
  
CITY           SKY/WX    TMP DP  RH WIND       PRES   REMARKS
ABERDEEN       MOCLDY    63  60  90 NE3       30.02R                  
WATERTOWN      CLOUDY    61  59  93 NE5       30.01S                  
BROOKINGS      CLOUDY    62  60  93 E13       30.00S                  
SISSETON         N/A     62  59  90 W3        30.00R                  
$$
 
SDZ017-020-022-023-036>040-048>070-200600-
SOUTHEAST SOUTH DAKOTA
  
CITY           SKY/WX    TMP DP  RH WIND       PRES   REMARKS
SIOUX FALLS    CLOUDY    64  61  90 NE9       29.96F                  
HURON          CLOUDY    65  62  90 NE5       30.02R                  
CHAMBERLAIN    CLOUDY    69  68  95 NE5       29.99F                  
MITCHELL       CLOUDY    66  63  90 N3        29.99S                  
YANKTON          N/A     68  65  90 N7        29.97R                  
$$
 
ABBREVIATIONS USED IN REMARKS
   TC - TEMPERATURE IN CELSIUS
  WCI - WIND CHILL INDEX
   HX - HEAT INDEX
  VSB - VISIBILITY